Regional Weather Roundup
Issued by NWS

Home | Current Version | Previous Version | Text Only | Print | Product List | Glossary Off
Versions: 1 2 3 4 5 6 7 8 9 10 11 12 13 14 15 16 17 18 19 20 21 22 23 24 25 26 27 28 29 30 31 32 33 34 35 36 37 38 39 40 41 42 43 44 45 46 47 48 49 50

000
ASUS43 KLSX 091357
RWRMO

WEATHER SUMMARY FOR MISSOURI
NATIONAL WEATHER SERVICE SPRINGFIELD MO
800 AM CST TUE FEB 09 2016

NOTE: "FAIR" INDICATES FEW OR NO CLOUDS BELOW 12,000 FEET WITH NO
       SIGNIFICANT WEATHER AND/OR OBSTRUCTIONS TO VISIBILITY.
       CURRENT SKY AND/OR WEATHER CONDITIONS ARE NOT AVAILABLE FOR
       CHILLICOTHE AND FARMINGTON.

MOZ001>031-035>038-043-044-053-054-091500-
...NORTHERN AND WESTERN MISSOURI...

CITY           SKY/WX    TMP DP  RH WIND       PRES   REMARKS
KANSAS CTY INT PTCLDY    16   7  67 N15G32    30.14R WCI   1
LEE`S SUMMIT   PTCLDY    18   7  62 N20G26    30.14R WCI   2
ST JOSEPH      CLEAR     15   5  64 N17G32    30.18R WCI  -1
CHILLICOTHE      N/A     17   8  67 NW10      30.12R WCI   5
KIRKSVILLE     FLURRIES  14   5  67 NW16G28   30.03R WCI  -2

$$
MOZ066>068-077>081-088>096-101>105-091500-
...SOUTHWEST MISSOURI...

CITY           SKY/WX    TMP DP  RH WIND       PRES   REMARKS
SPRINGFIELD    CLEAR     26  12  55 NW18G30   30.02R WCI  13
JOPLIN         CLEAR     28  19  69 NW14      30.11R WCI  17

$$
MOZ032>034-039>042-045>050-055>058-069>072-091500-
...CENTRAL MISSOURI...

CITY           SKY/WX    TMP DP  RH WIND       PRES   REMARKS
COLUMBIA       NOT AVBL
JEFFERSON CITY CLOUDY    20   9  62 NW14G23   30.05R WCI   7
ROLLA          CLOUDY    17   9  70 NW14G21   29.97R WCI   3
SEDALIA        CLOUDY    19   9  65 NW20G28   30.09R WCI   3

$$
MOZ051-052-059>065-091500-
...EAST CENTRAL MISSOURI...

CITY           SKY/WX    TMP DP  RH WIND       PRES   REMARKS
ST LOUIS INTL  LGT SNOW  19  12  74 NW15      29.97R WCI   5
SPIRIT OF STL  LGT SNOW  19  12  73 NW15G21   29.98S WCI   5

$$
MOZ072>076-082>087-097>100-106>115-091500-
...SOUTH CENTRAL AND SOUTHEAST MISSOURI...

CITY           SKY/WX    TMP DP  RH WIND       PRES   REMARKS
CAPE GIRARDEAU LGT SNOW  22  18  85 N8        29.96R FOG     WCI  12
POPLAR BLUFF   CLOUDY    27  12  53 NW14      29.97R WCI  16
WEST PLAINS    CLOUDY    24  11  57 NW18G31   29.97R WCI  10

$$


USA.gov is the U.S. government's official web portal to all federal, state and local government web resources and services.